Time,TemperatureF,DewpointF,PressureIn,WindDirection,WindDirectionDegrees,WindSpeedMPH,WindSpeedGustMPH,Humidity,HourlyPrecipIn,Conditions,Clouds,dailyrainin,SoftwareType,DateUTC
2013-01-11 00:05:00,35.2,32.0,30.07,WNW,284,4.0,10.0,88,0.00,,,0.00,weatherlink.com 1.10,2013-01-11 08:05:00,
2013-01-11 00:20:00,35.4,32.0,30.07,WNW,291,2.0,9.0,87,0.00,,,0.00,weatherlink.com 1.10,2013-01-11 08:20:00,
2013-01-11 00:35:00,35.2,32.0,30.07,West,261,1.0,5.0,89,0.00,,,0.00,weatherlink.com 1.10,2013-01-11 08:35:00,
2013-01-11 00:50:00,35.5,33.0,30.07,SSW,207,1.0,12.0,89,0.00,,,0.00,weatherlink.com 1.10,2013-01-11 08:50:00,
2013-01-11 01:05:00,35.1,31.0,30.07,West,281,3.0,10.0,86,0.00,,,0.00,weatherlink.com 1.10,2013-01-11 09:05:00,
2013-01-11 01:20:00,35.2,32.0,30.07,West,277,3.0,13.0,87,0.00,,,0.00,weatherlink.com 1.10,2013-01-11 09:20:00,
2013-01-11 01:35:00,35.2,32.0,30.07,WSW,247,1.0,10.0,88,0.00,,,0.00,weatherlink.com 1.10,2013-01-11 09:35:00,
2013-01-11 01:50:00,35.4,32.0,30.07,WNW,282,2.0,10.0,88,0.00,,,0.00,weatherlink.com 1.10,2013-01-11 09:50:00,
2013-01-11 02:05:00,35.3,32.0,30.08,WNW,282,5.0,11.0,88,0.00,,,0.00,weatherlink.com 1.10,2013-01-11 10:05:00,
2013-01-11 02:20:00,34.9,32.0,30.09,West,263,3.0,13.0,88,0.00,,,0.00,weatherlink.com 1.10,2013-01-11 10:20:00,
2013-01-11 02:35:00,35.1,32.0,30.09,West,279,4.0,10.0,88,0.00,,,0.00,weatherlink.com 1.10,2013-01-11 10:35:00,
2013-01-11 02:50:00,35.0,32.0,30.09,West,262,9.0,12.0,88,0.00,,,0.00,weatherlink.com 1.10,2013-01-11 10:50:00,
2013-01-11 03:05:00,34.8,31.0,30.09,West,277,5.0,13.0,87,0.00,,,0.00,weatherlink.com 1.10,2013-01-11 11:05:00,
2013-01-11 03:20:00,35.0,32.0,30.08,West,273,3.0,9.0,88,0.00,,,0.00,weatherlink.com 1.10,2013-01-11 11:20:00,
2013-01-11 03:35:00,35.0,32.0,30.08,WNW,284,3.0,9.0,89,0.00,,,0.00,weatherlink.com 1.10,2013-01-11 11:35:00,
2013-01-11 03:50:00,34.8,32.0,30.08,SSW,205,2.0,4.0,89,0.00,,,0.00,weatherlink.com 1.10,2013-01-11 11:50:00,
2013-01-11 04:05:00,33.9,31.0,30.09,WNW,293,0.0,3.0,87,0.00,,,0.00,weatherlink.com 1.10,2013-01-11 12:05:00,
2013-01-11 04:20:00,33.8,30.0,30.08,NW,318,2.0,7.0,84,0.00,,,0.00,weatherlink.com 1.10,2013-01-11 12:20:00,
2013-01-11 04:35:00,34.6,30.0,30.08,North,349,3.0,6.0,82,0.00,,,0.00,weatherlink.com 1.10,2013-01-11 12:35:00,
2013-01-11 04:50:00,35.0,30.0,30.09,West,278,3.0,7.0,81,0.00,,,0.00,weatherlink.com 1.10,2013-01-11 12:50:00,
2013-01-11 05:05:00,34.8,30.0,30.09,NW,319,3.0,6.0,81,0.00,,,0.00,weatherlink.com 1.10,2013-01-11 13:05:00,
2013-01-11 05:20:00,33.6,29.0,30.10,NNW,333,3.0,6.0,82,0.00,,,0.00,weatherlink.com 1.10,2013-01-11 13:20:00,
2013-01-11 05:35:00,32.5,28.0,30.11,NNW,346,4.0,6.0,83,0.00,,,0.00,weatherlink.com 1.10,2013-01-11 13:35:00,
2013-01-11 05:50:00,31.8,27.0,30.12,North,355,3.0,6.0,83,0.00,,,0.00,weatherlink.com 1.10,2013-01-11 13:50:00,
2013-01-11 06:05:00,31.6,27.0,30.13,North,360,4.0,7.0,83,0.00,,,0.00,weatherlink.com 1.10,2013-01-11 14:05:00,
2013-01-11 06:20:00,31.1,27.0,30.13,North,5,6.0,7.0,86,0.00,,,0.00,weatherlink.com 1.10,2013-01-11 14:20:00,
2013-01-11 06:35:00,30.3,27.0,30.14,North,5,6.0,8.0,88,0.00,,,0.00,weatherlink.com 1.10,2013-01-11 14:35:00,
2013-01-11 06:50:00,29.8,27.0,30.15,North,5,4.0,9.0,89,0.00,,,0.00,weatherlink.com 1.10,2013-01-11 14:50:00,
2013-01-11 07:06:00,29.9,27.0,30.16,North,360,5.0,7.0,89,0.00,,,0.00,weatherlink.com 1.10,2013-01-11 15:06:00,
2013-01-11 07:21:00,29.4,27.0,30.17,North,355,5.0,7.0,89,0.00,,,0.00,weatherlink.com 1.10,2013-01-11 15:21:00,
2013-01-11 07:36:00,29.2,26.0,30.18,North,360,3.0,8.0,88,0.00,,,0.00,weatherlink.com 1.10,2013-01-11 15:36:00,
2013-01-11 07:51:00,30.3,26.0,30.19,North,355,3.0,7.0,85,0.00,,,0.00,weatherlink.com 1.10,2013-01-11 15:51:00,
2013-01-11 08:06:00,30.0,26.0,30.20,North,351,3.0,6.0,86,0.00,,,0.00,weatherlink.com 1.10,2013-01-11 16:06:00,
2013-01-11 08:21:00,30.9,27.0,30.21,North,355,3.0,8.0,84,0.00,,,0.00,weatherlink.com 1.10,2013-01-11 16:21:00,
2013-01-11 08:36:00,31.6,26.0,30.22,North,355,4.0,7.0,81,0.00,,,0.00,weatherlink.com 1.10,2013-01-11 16:36:00,
2013-01-11 08:51:00,31.9,26.0,30.23,North,11,3.0,6.0,80,0.00,,,0.00,weatherlink.com 1.10,2013-01-11 16:51:00,
2013-01-11 09:06:00,31.9,26.0,30.23,NNW,341,1.0,5.0,80,0.00,,,0.00,weatherlink.com 1.10,2013-01-11 17:06:00,
2013-01-11 09:21:00,32.4,27.0,30.24,North,355,2.0,6.0,79,0.00,,,0.00,weatherlink.com 1.10,2013-01-11 17:21:00,
2013-01-11 09:36:00,32.7,26.0,30.25,NNW,346,3.0,7.0,77,0.00,,,0.00,weatherlink.com 1.10,2013-01-11 17:36:00,
2013-01-11 09:51:00,32.8,27.0,30.25,North,355,1.0,3.0,78,0.00,,,0.00,weatherlink.com 1.10,2013-01-11 17:51:00,
2013-01-11 10:06:00,32.6,27.0,30.26,North,11,2.0,4.0,81,0.00,,,0.00,weatherlink.com 1.10,2013-01-11 18:06:00,
2013-01-11 10:21:00,33.9,29.0,30.26,NNE,31,1.0,3.0,83,0.00,,,0.00,weatherlink.com 1.10,2013-01-11 18:21:00,
2013-01-11 10:36:00,39.0,33.0,30.26,SSW,194,5.0,5.0,80,0.00,,,0.00,weatherlink.com 1.10,2013-01-11 18:36:00,
2013-01-11 10:51:00,40.5,34.0,30.27,South,190,3.0,6.0,76,0.00,,,0.00,weatherlink.com 1.10,2013-01-11 18:51:00,
2013-01-11 11:06:00,40.5,34.0,30.26,South,186,4.0,7.0,76,0.00,,,0.00,weatherlink.com 1.10,2013-01-11 19:06:00,
2013-01-11 11:21:00,41.5,34.0,30.26,South,188,5.0,6.0,75,0.00,,,0.00,weatherlink.com 1.10,2013-01-11 19:21:00,
2013-01-11 11:36:00,41.6,34.0,30.26,South,188,3.0,6.0,73,0.00,,,0.00,weatherlink.com 1.10,2013-01-11 19:36:00,
2013-01-11 11:51:00,42.2,34.0,30.25,South,180,3.0,6.0,74,0.00,,,0.00,weatherlink.com 1.10,2013-01-11 19:51:00,
2013-01-11 12:06:00,42.9,34.0,30.25,South,188,3.0,6.0,72,0.00,,,0.00,weatherlink.com 1.10,2013-01-11 20:06:00,
2013-01-11 12:21:00,43.7,34.0,30.25,South,182,4.0,6.0,69,0.00,,,0.00,weatherlink.com 1.10,2013-01-11 20:21:00,
2013-01-11 12:36:00,43.7,34.0,30.25,South,186,4.0,5.0,68,0.00,,,0.00,weatherlink.com 1.10,2013-01-11 20:36:00,
2013-01-11 12:51:00,44.1,34.0,30.25,South,185,4.0,6.0,67,0.00,,,0.00,weatherlink.com 1.10,2013-01-11 20:51:00,
2013-01-11 13:06:00,43.3,34.0,30.25,South,183,3.0,6.0,71,0.00,,,0.00,weatherlink.com 1.10,2013-01-11 21:06:00,
2013-01-11 13:21:00,43.8,34.0,30.25,SW,229,3.0,7.0,69,0.00,,,0.00,weatherlink.com 1.10,2013-01-11 21:21:00,
2013-01-11 13:36:00,44.3,34.0,30.26,South,183,3.0,6.0,67,0.00,,,0.00,weatherlink.com 1.10,2013-01-11 21:36:00,
2013-01-11 13:51:00,44.2,34.0,30.26,SSW,194,4.0,8.0,68,0.00,,,0.00,weatherlink.com 1.10,2013-01-11 21:51:00,
2013-01-11 14:06:00,43.9,33.0,30.27,South,184,3.0,8.0,66,0.00,,,0.00,weatherlink.com 1.10,2013-01-11 22:06:00,
2013-01-11 14:21:00,43.8,33.0,30.27,SW,217,2.0,8.0,66,0.00,,,0.00,weatherlink.com 1.10,2013-01-11 22:21:00,
2013-01-11 14:36:00,43.6,33.0,30.27,South,182,3.0,6.0,67,0.00,,,0.00,weatherlink.com 1.10,2013-01-11 22:36:00,
2013-01-11 14:51:00,42.9,32.0,30.27,SW,215,2.0,7.0,66,0.00,,,0.00,weatherlink.com 1.10,2013-01-11 22:51:00,
2013-01-11 15:06:00,42.6,31.0,30.27,SW,227,4.0,8.0,65,0.00,,,0.00,weatherlink.com 1.10,2013-01-11 23:06:00,
2013-01-11 15:21:00,42.3,31.0,30.27,WSW,250,3.0,9.0,65,0.00,,,0.00,weatherlink.com 1.10,2013-01-11 23:21:00,
2013-01-11 15:36:00,41.2,30.0,30.28,NW,321,2.0,9.0,65,0.00,,,0.00,weatherlink.com 1.10,2013-01-11 23:36:00,
2013-01-11 15:51:00,40.6,30.0,30.28,WSW,253,0.0,6.0,67,0.00,,,0.00,weatherlink.com 1.10,2013-01-11 23:51:00,
2013-01-11 16:06:00,40.0,30.0,30.28,West,265,1.0,7.0,67,0.00,,,0.00,weatherlink.com 1.10,2013-01-12 00:06:00,
2013-01-11 16:21:00,38.4,29.0,30.28,WSW,254,1.0,8.0,69,0.00,,,0.00,weatherlink.com 1.10,2013-01-12 00:21:00,
2013-01-11 16:36:00,37.1,29.0,30.28,West,259,6.0,8.0,72,0.00,,,0.00,weatherlink.com 1.10,2013-01-12 00:36:00,
2013-01-11 16:51:00,36.4,29.0,30.28,SSW,200,4.0,10.0,73,0.00,,,0.00,weatherlink.com 1.10,2013-01-12 00:51:00,
2013-01-11 17:07:00,33.9,27.0,30.29,West,280,3.0,7.0,77,0.00,,,0.00,weatherlink.com 1.10,2013-01-12 01:07:00,
2013-01-11 17:22:00,31.4,26.0,30.29,NW,321,2.0,5.0,81,0.00,,,0.00,weatherlink.com 1.10,2013-01-12 01:22:00,
2013-01-11 17:37:00,30.1,26.0,30.29,North,5,2.0,6.0,84,0.00,,,0.00,weatherlink.com 1.10,2013-01-12 01:37:00,
2013-01-11 17:52:00,30.1,26.0,30.30,North,355,3.0,3.0,84,0.00,,,0.00,weatherlink.com 1.10,2013-01-12 01:52:00,
2013-01-11 18:07:00,29.5,26.0,30.30,North,360,3.0,4.0,85,0.00,,,0.00,weatherlink.com 1.10,2013-01-12 02:07:00,
2013-01-11 18:22:00,28.8,25.0,30.31,North,355,3.0,4.0,87,0.00,,,0.00,weatherlink.com 1.10,2013-01-12 02:22:00,
2013-01-11 18:37:00,28.4,25.0,30.31,North,355,4.0,5.0,88,0.00,,,0.00,weatherlink.com 1.10,2013-01-12 02:37:00,
2013-01-11 18:52:00,29.3,26.0,30.31,NNW,347,3.0,6.0,87,0.00,,,0.00,weatherlink.com 1.10,2013-01-12 02:52:00,
2013-01-11 19:07:00,28.6,25.0,30.32,North,355,4.0,5.0,87,0.00,,,0.00,weatherlink.com 1.10,2013-01-12 03:07:00,
2013-01-11 19:22:00,27.8,25.0,30.32,North,349,4.0,5.0,90,0.00,,,0.00,weatherlink.com 1.10,2013-01-12 03:22:00,
2013-01-11 19:37:00,27.9,26.0,30.31,North,355,3.0,5.0,91,0.00,,,0.00,weatherlink.com 1.10,2013-01-12 03:37:00,
2013-01-11 19:52:00,27.7,26.0,30.32,NNW,344,3.0,6.0,91,0.00,,,0.00,weatherlink.com 1.10,2013-01-12 03:52:00,
2013-01-11 20:07:00,27.2,25.0,30.32,North,355,6.0,7.0,91,0.00,,,0.00,weatherlink.com 1.10,2013-01-12 04:07:00,
2013-01-11 20:23:00,27.2,25.0,30.32,North,355,5.0,7.0,92,0.00,,,0.00,weatherlink.com 1.10,2013-01-12 04:23:00,
2013-01-11 20:37:00,27.4,25.0,30.32,North,360,5.0,7.0,91,0.00,,,0.00,weatherlink.com 1.10,2013-01-12 04:37:00,
2013-01-11 20:52:00,27.1,25.0,30.32,North,5,5.0,6.0,91,0.00,,,0.00,weatherlink.com 1.10,2013-01-12 04:52:00,
2013-01-11 21:07:00,27.0,25.0,30.32,North,355,4.0,6.0,92,0.00,,,0.00,weatherlink.com 1.10,2013-01-12 05:07:00,
2013-01-11 21:22:00,27.1,25.0,30.32,North,360,4.0,5.0,92,0.00,,,0.00,weatherlink.com 1.10,2013-01-12 05:22:00,
2013-01-11 21:37:00,27.0,25.0,30.32,North,350,4.0,5.0,92,0.00,,,0.00,weatherlink.com 1.10,2013-01-12 05:37:00,
2013-01-11 21:52:00,26.7,25.0,30.32,North,355,4.0,6.0,92,0.00,,,0.00,weatherlink.com 1.10,2013-01-12 05:52:00,
2013-01-11 22:22:00,26.5,25.0,30.32,NNW,343,4.0,6.0,93,0.00,,,0.00,weatherlink.com 1.10,2013-01-12 06:22:00,
2013-01-11 22:37:00,26.4,24.0,30.32,North,360,3.0,6.0,92,0.00,,,0.00,weatherlink.com 1.10,2013-01-12 06:37:00,
2013-01-11 22:52:00,26.4,25.0,30.32,North,360,4.0,7.0,93,0.00,,,0.00,weatherlink.com 1.10,2013-01-12 06:52:00,
2013-01-11 23:07:00,26.4,24.0,30.32,North,355,4.0,7.0,92,0.00,,,0.00,weatherlink.com 1.10,2013-01-12 07:07:00,
2013-01-11 23:22:00,26.2,24.0,30.33,North,355,5.0,6.0,92,0.00,,,0.00,weatherlink.com 1.10,2013-01-12 07:22:00,
2013-01-11 23:37:00,26.0,24.0,30.33,North,355,6.0,7.0,93,0.00,,,0.00,weatherlink.com 1.10,2013-01-12 07:37:00,
2013-01-11 23:52:00,25.7,24.0,30.33,North,360,4.0,6.0,92,0.00,,,0.00,weatherlink.com 1.10,2013-01-12 07:52:00,